Location: State Camp
(41.2367°N, 77.7828°W)
Time: 18:31:53
(UTC-04:00)

Amateur Radio Satellites - All Passes

Search period start: 25 September 2016 18:01
Search period end: 26 September 2016 18:01
Location: State Camp, 41.2367°N, 77.7828°W

Satellite Date Start Highest point End Downlink Frequencies (MHz)
Time Altitude Azimuth
AIST 1 25 Sep 18:03:23 18:07:04 28° 270° (W) 18:10:43
AO-7 25 Sep 18:07:46 18:11:30 14° 272° (W) 18:15:16 29.400- 29.500
STARS 25 Sep 18:12:48 18:17:04 54° 287° (WNW) 18:21:19 437.465
HO-68 25 Sep 18:13:56 18:17:23 14° 51° (NE) 18:20:51 435.675
NOAA 15 25 Sep 18:23:54 18:29:12 78° 73° (ENE) 18:34:33 137.62
MOZHAYETS 4 25 Sep 18:24:43 18:27:26 16° 297° (WNW) 18:30:09
BRITE-PL 25 Sep 18:26:21 18:31:55 54° 261° (W) 18:37:28 437.365/2234.400
LilacSat-2 25 Sep 18:28:52 18:32:35 66° 76° (ENE) 18:36:20 437.200
GOMX 1 25 Sep 18:29:38 18:35:05 80° 76° (ENE) 18:40:20 467.674
GONETS M04 25 Sep 18:30:07 18:33:45 13° 56° (NE) 18:37:23
Cubesat XI-IV 25 Sep 18:30:25 18:35:42 72° 73° (ENE) 18:41:00 437.490
CUTE-I 25 Sep 18:31:26 18:36:43 74° 74° (ENE) 18:42:02 437.470
NOAA 18 25 Sep 18:49:47 18:55:16 89° 75° (ENE) 19:00:46 137.9125
CINEMA 3 25 Sep 19:01:13 19:04:20 19° 67° (ENE) 19:07:22 145.822/145.860
DOVE 4 25 Sep 19:04:57 19:10:04 79° 77° (ENE) 19:14:55 437.250
RS-15 25 Sep 19:13:48 19:22:09 24° 99° (E) 19:30:44 29.354- 29.394
STRAND 1 25 Sep 19:35:02 19:38:55 21° 93° (E) 19:42:47 437.568
CUBESAT XI-V 25 Sep 19:36:45 19:40:08 20° 295° (WNW) 19:43:31 437.345
O/OREOS (USA 219) 25 Sep 19:40:36 19:42:29 12° 263° (W) 19:44:23 437.305
COMPASS 1 25 Sep 19:45:59 19:48:51 18° 66° (ENE) 19:51:45 437.405
CUSAT 1 25 Sep 19:47:06 19:52:53 61° 93° (E) 20:00:08 437.405
HO-68 25 Sep 19:56:44 20:03:51 71° 70° (ENE) 20:10:59 435.675
CUTE 1.7 + AOD 2 25 Sep 20:01:45 20:05:53 57° 74° (ENE) 20:10:03 437.475
Cosmos 2499 25 Sep 20:02:18 20:09:16 40° 75° (ENE) 20:16:40 435.465 / 435.565
CANX-2 25 Sep 20:02:24 20:06:35 67° 75° (ENE) 20:10:49 2200.000
NOAA 15 25 Sep 20:07:14 20:09:33 13° 271° (W) 20:11:52 137.62
SEEDS 25 Sep 20:08:12 20:12:13 46° 73° (ENE) 20:16:16 437.485
GOMX 1 25 Sep 20:11:11 20:13:37 13° 271° (W) 20:16:02 467.674
Cubesat XI-IV 25 Sep 20:13:33 20:16:17 14° 270° (W) 20:19:01 437.490
CUTE-I 25 Sep 20:14:45 20:17:18 14° 270° (W) 20:19:53 437.470
GONETS M04 25 Sep 20:23:47 20:32:35 65° 79° (E) 20:41:15
CUBEBUG 2 25 Sep 20:25:22 20:29:16 37° 71° (ENE) 20:33:07 437.445
NOAA 18 25 Sep 20:35:00 20:36:37 11° 271° (W) 20:38:13 137.9125
CINEMA 3 25 Sep 20:36:54 20:41:12 41° 261° (W) 20:45:22 145.822/145.860
AAUSAT CUBESAT 2 25 Sep 20:38:18 20:42:21 54° 74° (ENE) 20:46:26 437.432
FUNcube-1 25 Sep 20:44:16 20:47:32 23° 68° (ENE) 20:50:49 145.935
DOVE 4 25 Sep 20:46:31 20:48:11 11° 270° (W) 20:49:49 437.250
UWE-3 25 Sep 20:48:50 20:52:48 44° 73° (ENE) 20:56:46 435.000/436.395/437.385
DELFI C3 25 Sep 20:48:57 20:49:42 10° 62° (ENE) 20:50:26 145.870
DANDE 25 Sep 20:53:39 20:58:25 81° 97° (E) 21:04:53 436.750
STRAND 1 25 Sep 21:13:23 21:18:18 46° 290° (WNW) 21:23:12 437.568
COMPASS 1 25 Sep 21:20:14 21:24:07 38° 263° (W) 21:28:03 437.405
RS-15 25 Sep 21:21:14 21:32:52 90° 301° (WNW) 21:45:09 29.354- 29.394
ZACube-1 25 Sep 21:23:50 21:27:58 70° 75° (ENE) 21:32:05 437.345
Oscar 11 25 Sep 21:26:32 21:30:49 75° 76° (ENE) 21:35:08 145.826/435.025
CUSAT 1 25 Sep 21:30:33 21:35:36 25° 297° (WNW) 21:41:29 437.405
CUTE 1.7 + AOD 2 25 Sep 21:40:25 21:42:05 12° 270° (W) 21:43:44 437.475
ISS 25 Sep 21:41:27 21:44:39 58° 140° (SE) 21:47:52 145.825
SEEDS 25 Sep 21:45:48 21:48:10 15° 269° (W) 21:50:32 437.485
HO-68 25 Sep 21:46:55 21:52:08 22° 268° (W) 21:57:25 435.675
AO-85 25 Sep 21:51:06 21:56:09 50° 117° (ESE) 22:00:56 145.980
Cosmos 2499 25 Sep 21:55:29 22:02:18 40° 272° (W) 22:09:36 435.465 / 435.565
CUBEBUG 2 25 Sep 22:03:10 22:06:01 18° 267° (W) 22:08:52 437.445
HUMSAT D 25 Sep 22:06:37 22:10:24 39° 72° (ENE) 22:14:14 437.325/437.525
PRISM 25 Sep 22:08:04 22:12:14 77° 102° (ESE) 22:16:21 437.425
AAUSAT CUBESAT 2 25 Sep 22:16:26 22:18:09 12° 270° (W) 22:19:53 437.432
DELFI C3 25 Sep 22:19:59 22:23:57 67° 259° (W) 22:27:58 145.870
FUNcube-1 25 Sep 22:20:05 22:23:40 28° 264° (W) 22:27:15 145.935
GONETS M04 25 Sep 22:21:44 22:28:39 27° 279° (W) 22:35:31
ANTELSAT 25 Sep 22:25:11 22:27:46 15° 92° (E) 22:30:22 437.575/2403.000
UWE-3 25 Sep 22:27:11 22:29:30 15° 268° (W) 22:31:50 435.000/436.395/437.385
DANDE 25 Sep 22:39:30 22:42:30 15° 304° (WNW) 22:45:56 436.750
TIGRISAT 25 Sep 22:45:37 22:49:11 24° 95° (E) 22:52:47 435.000
AISAT 25 Sep 23:09:50 23:12:53 18° 65° (ENE) 23:15:56 437.250
AUBIESAT-1 25 Sep 23:12:37 23:15:07 16° 62° (ENE) 23:17:32 437.475
JAS-2 25 Sep 23:13:30 23:14:27 10° 82° (E) 23:15:23 435.910
ISS 25 Sep 23:18:38 23:21:20 24° 338° (NNW) 23:24:05 145.825
SPROUT 25 Sep 23:22:12 23:23:49 12° 62° (ENE) 23:25:25 437.525
UNISAT 6 25 Sep 23:24:49 23:29:12 69° 101° (ESE) 23:33:40 437.425
UKube-1 25 Sep 23:30:40 23:32:57 14° 63° (ENE) 23:35:14 .
AO-85 25 Sep 23:32:35 23:36:49 25° 314° (NW) 23:40:51 145.980
QB50P1 25 Sep 23:35:41 23:36:29 10° 90° (E) 23:37:17 145.935-145.965
RS-15 25 Sep 23:36:42 23:47:11 34° 328° (NNW) 23:58:05 29.354- 29.394
ESTCUBE 1 25 Sep 23:42:17 23:46:47 75° 76° (ENE) 23:51:21 437.505/2401.250
HUMSAT D 25 Sep 23:43:40 23:46:12 16° 268° (W) 23:48:46 437.325/437.525
M-CUBED/EXP-1 PRIME 25 Sep 23:46:07 23:50:10 46° 69° (ENE) 23:53:56 437.505
POPSAT HIP 1 25 Sep 23:47:31 23:49:54 15° 92° (E) 23:52:17 437.405
VELOX 1 25 Sep 23:52:13 23:56:30 47° 72° (ENE) 00:00:46 145.980
DX 1 25 Sep 23:52:47 23:56:37 31° 69° (ENE) 00:00:28 434.975-435.025
ANTELSAT 26 Sep 00:00:29 00:04:43 49° 287° (WNW) 00:09:02 437.575/2403.000
CUBEBUG 1 26 Sep 00:02:37 00:07:02 79° 76° (ENE) 00:11:28 437.445
NANOSAT C BR1 26 Sep 00:04:49 00:08:07 22° 95° (E) 00:11:23 145.865
TIGRISAT 26 Sep 00:22:02 00:25:52 31° 290° (WNW) 00:29:46 435.000
QB50P2 26 Sep 00:25:21 00:29:23 42° 99° (E) 00:33:24 145.880/145.840
POLYITAN 1 26 Sep 00:27:36 00:31:37 43° 99° (E) 00:35:38 437.675
50 SAT 26 Sep 00:32:27 00:36:00 56° 259° (W) 00:39:37 437.505
SO-50 26 Sep 00:42:18 00:46:43 45° 52° (NE) 00:51:01 436.795
AISAT 26 Sep 00:44:46 00:49:01 44° 261° (W) 00:53:17 437.250
AUBIESAT-1 26 Sep 00:45:20 00:49:19 43° 255° (WSW) 00:53:03 437.475
TISAT 1 26 Sep 00:49:25 00:52:36 21° 67° (ENE) 00:55:46 437.305
JAS-2 26 Sep 00:53:04 01:00:54 62° 100° (E) 01:08:23 435.910
SPROUT 26 Sep 00:54:57 00:59:11 66° 258° (WSW) 01:03:27 437.525
ISS 26 Sep 00:57:00 00:58:43 13° 359° (N) 01:00:27 145.825
UNISAT 6 26 Sep 01:03:42 01:05:23 12° 298° (WNW) 01:07:04 437.425
UKube-1 26 Sep 01:04:16 01:08:31 56° 259° (W) 01:12:48 .
QB50P1 26 Sep 01:08:29 01:12:39 64° 285° (WNW) 01:16:48 145.935-145.965
DUCHIFAT 1 26 Sep 01:09:00 01:13:11 73° 284° (WNW) 01:17:20 145.980
BUGSAT 1 26 Sep 01:21:13 01:25:12 60° 100° (E) 01:29:11 437.445
POPSAT HIP 1 26 Sep 01:21:54 01:25:55 45° 288° (WNW) 01:29:56 437.405
M-CUBED/EXP-1 PRIME 26 Sep 01:22:24 01:24:48 15° 261° (W) 01:27:07 437.505
ESTCUBE 1 26 Sep 01:23:28 01:24:06 10° 271° (W) 01:24:45 437.505/2401.250
DX 1 26 Sep 01:29:14 01:32:48 24° 265° (W) 01:36:22 434.975-435.025
VELOX 1 26 Sep 01:30:25 01:33:11 16° 268° (W) 01:35:58 145.980
ITUPSAT 1 26 Sep 01:35:54 01:38:39 15° 62° (ENE) 01:41:25 437.325
BEESAT 3 26 Sep 01:38:28 01:42:04 37° 116° (ESE) 01:45:43 437.485
NANOSAT C BR1 26 Sep 01:40:10 01:43:51 30° 290° (WNW) 01:47:32 145.865
SWISSCUBE 26 Sep 01:49:09 01:52:52 23° 65° (ENE) 01:56:35 437.505
RS-15 26 Sep 01:55:52 02:04:58 23° 3° (N) 02:14:11 29.354- 29.394
BEESAT 26 Sep 02:02:04 02:06:03 28° 67° (ENE) 02:10:04 436.000
QB50P2 26 Sep 02:02:09 02:04:51 17° 295° (WNW) 02:07:33 145.880/145.840
POLYITAN 1 26 Sep 02:04:23 02:07:05 17° 295° (WNW) 02:09:47 437.675
Cosmos 2491 26 Sep 02:06:16 02:14:40 45° 74° (ENE) 02:22:58 435.465 / 435.565
SO-50 26 Sep 02:23:32 02:26:50 20° 249° (WSW) 02:30:06 436.795
TISAT 1 26 Sep 02:24:16 02:28:02 32° 263° (W) 02:31:49 437.305
BEESAT 2 26 Sep 02:28:50 02:32:44 67° 119° (ESE) 02:36:41 435.950
ISS 26 Sep 02:33:34 02:36:09 21° 19° (NNE) 02:38:43 145.825
Oscar 19 26 Sep 02:37:05 02:42:15 70° 102° (ESE) 02:47:22 437.125/150
JAS-2 26 Sep 02:38:44 02:45:20 31° 298° (WNW) 02:51:48 435.910
KKS-1 26 Sep 02:56:48 02:57:43 11° 60° (ENE) 02:58:38 437.445
BUGSAT 1 26 Sep 02:58:47 03:00:04 11° 297° (WNW) 03:01:21 437.445
YUBILEINY 26 Sep 03:06:42 03:14:49 44° 87° (E) 03:22:55 435.215
ITUPSAT 1 26 Sep 03:11:16 03:15:57 62° 259° (WSW) 03:20:42 437.325
Gurwin Techsat 1B 26 Sep 03:16:38 03:21:59 77° 103° (ESE) 03:27:18 435.225
BEESAT 3 26 Sep 03:16:48 03:19:50 21° 314° (NW) 03:22:55 437.485
ITAMSAT 1 26 Sep 03:25:46 03:30:06 26° 95° (E) 03:34:24 435.822/435.867
SWISSCUBE 26 Sep 03:26:00 03:30:25 38° 262° (W) 03:34:53 437.505
Cosmos 2504 26 Sep 03:32:05 03:37:10 20° 82° (E) 03:42:07 435.465 / 435.565
STARS 26 Sep 03:35:26 03:37:29 13° 62° (ENE) 03:39:32 437.465
BEESAT 26 Sep 03:39:31 03:43:43 31° 263° (W) 03:47:58 436.000
MOZHAYETS 4 26 Sep 03:47:48 03:52:13 53° 73° (ENE) 03:56:42
Cosmos 2491 26 Sep 04:03:20 04:11:22 41° 274° (W) 04:19:22 435.465 / 435.565
BEESAT 2 26 Sep 04:08:45 04:10:59 14° 318° (NW) 04:13:14 435.950
ISS 26 Sep 04:09:40 04:12:58 81° 218° (SW) 04:16:15 145.825
RS-15 26 Sep 04:10:55 04:22:21 40° 37° (NE) 04:33:36 29.354- 29.394
AO-7 26 Sep 04:11:04 04:18:37 37° 98° (E) 04:26:07 29.400- 29.500
Oscar 19 26 Sep 04:18:01 04:20:58 16° 299° (WNW) 04:23:56 437.125/150
KKS-1 26 Sep 04:29:08 04:33:37 82° 258° (WSW) 04:38:05 437.445
AIST 2 26 Sep 04:32:11 04:36:07 47° 117° (ESE) 04:40:06 435.215
AIST 1 26 Sep 04:56:40 04:58:55 14° 85° (E) 05:01:08
Gurwin Techsat 1B 26 Sep 04:58:23 05:01:15 15° 300° (WNW) 05:04:08 435.225
CUBESAT XI-V 26 Sep 05:01:36 05:06:01 42° 71° (ENE) 05:10:28 437.345
YUBILEINY 26 Sep 05:03:27 05:11:36 41° 287° (WNW) 05:19:47 435.215
PCSat 26 Sep 05:03:37 05:08:46 47° 113° (ESE) 05:13:58 145.827
ITAMSAT 1 26 Sep 05:04:49 05:09:38 39° 291° (WNW) 05:14:27 435.822/435.867
STARS 26 Sep 05:08:58 05:13:18 63° 258° (WSW) 05:17:40 437.465
Cosmos 2504 26 Sep 05:22:22 05:29:48 69° 280° (W) 05:36:59 435.465 / 435.565
MOZHAYETS 4 26 Sep 05:27:09 05:29:43 15° 269° (W) 05:32:17
HORYU 2 26 Sep 05:40:58 05:44:42 26° 96° (E) 05:48:25 437.375
DANDE 26 Sep 05:49:54 05:54:53 17° 59° (ENE) 05:59:49 436.750
AO-7 26 Sep 06:03:39 06:11:32 50° 297° (WNW) 06:19:24 29.400- 29.500
AIST 2 26 Sep 06:11:49 06:14:50 19° 316° (NW) 06:17:53 435.215
CUSAT 1 26 Sep 06:21:23 06:29:01 50° 73° (ENE) 06:35:34 437.405
AO-85 26 Sep 06:23:23 06:27:17 36° 50° (NE) 06:30:57 145.980
RS-15 26 Sep 06:23:42 06:36:04 77° 243° (WSW) 06:48:06 29.354- 29.394
AIST 1 26 Sep 06:31:46 06:36:02 49° 281° (W) 06:40:18
BRITE-PL 26 Sep 06:32:03 06:36:50 52° 99° (E) 06:41:14 437.365/2234.400
GOMX 1 26 Sep 06:33:02 06:36:21 21° 92° (E) 06:39:33 467.674
NOAA 15 26 Sep 06:39:32 06:44:08 29° 96° (E) 06:48:40 137.62
CUBESAT XI-V 26 Sep 06:40:10 06:43:34 20° 268° (W) 06:46:59 437.345
PCSat 26 Sep 06:47:48 06:52:23 27° 311° (NW) 06:56:59 145.827
Cubesat XI-IV 26 Sep 06:48:03 06:52:39 28° 96° (E) 06:57:13 437.490
CUTE-I 26 Sep 06:48:52 06:53:30 29° 96° (E) 06:58:07 437.470
STRAND 1 26 Sep 06:50:47 06:55:11 31° 67° (ENE) 06:59:38 437.568
DOVE 4 26 Sep 07:05:12 07:08:06 18° 92° (E) 07:10:58 437.250
NOAA 18 26 Sep 07:12:03 07:17:06 37° 98° (E) 07:22:08 137.9125
HORYU 2 26 Sep 07:17:22 07:21:13 29° 292° (WNW) 07:25:04 437.375
Cosmos 2504 26 Sep 07:22:55 07:24:37 11° 301° (WNW) 07:26:19 435.465 / 435.565
HO-68 26 Sep 07:28:03 07:30:14 11° 87° (E) 07:32:25 435.675
DANDE 26 Sep 07:30:44 07:39:07 72° 78° (ENE) 07:47:04 436.750
GONETS M04 26 Sep 07:33:52 07:37:44 14° 74° (ENE) 07:41:35
LilacSat-2 26 Sep 07:36:10 07:40:00 79° 283° (WNW) 07:43:51 437.200
CANX-2 26 Sep 07:49:26 07:51:04 12° 90° (E) 07:52:43 2200.000
AO-7 26 Sep 07:59:56 08:02:20 11° 318° (NW) 08:04:44 29.400- 29.500
CUSAT 1 26 Sep 08:03:55 08:10:41 33° 274° (W) 08:16:35 437.405
AO-85 26 Sep 08:04:27 08:07:24 19° 249° (WSW) 08:10:15 145.980
GOMX 1 26 Sep 08:10:33 08:14:35 33° 291° (WNW) 08:18:25 467.674
O/OREOS (USA 219) 26 Sep 08:11:04 08:15:36 76° 111° (ESE) 08:20:11 437.305
BRITE-PL 26 Sep 08:11:40 08:14:48 17° 298° (WNW) 08:17:47 437.365/2234.400
NOAA 15 26 Sep 08:19:07 08:23:55 36° 292° (WNW) 08:28:41 137.62
Cubesat XI-IV 26 Sep 08:27:52 08:32:45 37° 292° (WNW) 08:37:38 437.490
CUTE-I 26 Sep 08:28:42 08:33:34 36° 292° (WNW) 08:38:24 437.470
STRAND 1 26 Sep 08:29:46 08:34:17 32° 263° (W) 08:38:50 437.568
CINEMA 3 26 Sep 08:31:09 08:35:06 41° 98° (E) 08:39:05 145.822/145.860
RS-15 26 Sep 08:39:05 08:46:21 18° 264° (W) 08:53:33 29.354- 29.394
Cosmos 2499 26 Sep 08:40:22 08:46:22 30° 86° (E) 08:52:15 435.465 / 435.565
DOVE 4 26 Sep 08:42:07 08:45:58 35° 290° (WNW) 08:49:44 437.250
NOAA 18 26 Sep 08:52:56 08:57:36 30° 295° (WNW) 09:02:17 137.9125
PRISM 26 Sep 08:57:02 09:01:05 53° 73° (ENE) 09:05:11 437.425
COMPASS 1 26 Sep 09:02:52 09:06:41 32° 97° (E) 09:10:28 437.405
HO-68 26 Sep 09:11:54 09:19:04 74° 104° (ESE) 09:26:12 435.675
ZACube-1 26 Sep 09:13:21 09:15:34 14° 91° (E) 09:17:47 437.345
DANDE 26 Sep 09:14:36 09:21:10 27° 277° (W) 09:27:29 436.750
Oscar 11 26 Sep 09:15:17 09:17:32 14° 91° (E) 09:19:47 145.826/435.025
CUTE 1.7 + AOD 2 26 Sep 09:22:10 09:26:28 70° 284° (WNW) 09:30:44 437.475
CANX-2 26 Sep 09:23:03 09:27:18 59° 286° (WNW) 09:31:32 2200.000
GONETS M04 26 Sep 09:24:07 09:32:54 75° 94° (E) 09:41:45
ANTELSAT 26 Sep 09:24:57 09:27:05 14° 63° (ENE) 09:29:11 437.575/2403.000
SEEDS 26 Sep 09:27:19 09:31:36 88° 278° (W) 09:35:51 437.485
TIGRISAT 26 Sep 09:44:50 09:48:00 21° 67° (ENE) 09:51:10 435.000
CUBEBUG 2 26 Sep 09:51:48 09:56:04 89° 101° (E) 10:00:27 437.445
O/OREOS (USA 219) 26 Sep 09:53:27 09:55:35 13° 309° (NW) 09:57:44 437.305
BEESAT 3 26 Sep 09:55:35 09:58:53 24° 48° (NE) 10:02:09 437.485
AAUSAT CUBESAT 2 26 Sep 09:55:41 09:59:54 79° 283° (WNW) 10:04:05 437.432
DELFI C3 26 Sep 09:58:38 10:01:04 15° 92° (E) 10:03:28 145.870
FUNcube-1 26 Sep 10:06:57 10:11:09 49° 100° (E) 10:15:25 145.935
CINEMA 3 26 Sep 10:09:18 10:11:57 17° 294° (WNW) 10:14:37 145.822/145.860
UWE-3 26 Sep 10:14:03 10:18:20 79° 285° (WNW) 10:22:44 435.000/436.395/437.385
UNISAT 6 26 Sep 10:23:36 10:27:48 58° 74° (ENE) 10:31:59 437.425
Cosmos 2499 26 Sep 10:32:19 10:39:09 46° 284° (WNW) 10:45:55 435.465 / 435.565
PRISM 26 Sep 10:34:52 10:36:42 13° 269° (W) 10:38:32 437.425
COMPASS 1 26 Sep 10:38:48 10:42:02 22° 293° (WNW) 10:45:15 437.405
POPSAT HIP 1 26 Sep 10:41:09 10:42:45 12° 63° (ENE) 10:44:21 437.405
BEESAT 2 26 Sep 10:46:48 10:50:35 39° 52° (NE) 10:54:22 435.950
ZACube-1 26 Sep 10:47:56 10:52:07 52° 286° (WNW) 10:56:23 437.345
Oscar 11 26 Sep 10:49:43 10:53:58 52° 287° (WNW) 10:58:11 145.826/435.025
NANOSAT C BR1 26 Sep 10:57:31 11:00:16 17° 65° (ENE) 11:03:02 145.865
ANTELSAT 26 Sep 10:59:07 11:03:19 55° 260° (W) 11:07:31 437.575/2403.000
HO-68 26 Sep 11:00:48 11:06:05 23° 303° (WNW) 11:11:21 435.675
JAS-2 26 Sep 11:05:45 11:11:05 27° 60° (ENE) 11:16:54 435.910
QB50P2 26 Sep 11:17:58 11:21:42 32° 70° (ENE) 11:25:28 145.880/145.840
POLYITAN 1 26 Sep 11:20:12 11:23:56 32° 70° (ENE) 11:27:41 437.675
TIGRISAT 26 Sep 11:20:37 11:24:30 34° 263° (W) 11:28:23 435.000
GONETS M04 26 Sep 11:23:47 11:30:37 24° 295° (WNW) 11:37:31
HUMSAT D 26 Sep 11:24:51 11:29:06 78° 102° (ESE) 11:33:23 437.325/437.525
DELFI C3 26 Sep 11:32:17 11:36:04 39° 288° (WNW) 11:39:48 145.870
BEESAT 3 26 Sep 11:33:00 11:36:34 32° 245° (WSW) 11:40:06 437.485
ESTCUBE 1 26 Sep 11:36:05 11:38:50 16° 92° (E) 11:41:34 437.505/2401.250
FUNcube-1 26 Sep 11:44:28 11:47:00 16° 295° (WNW) 11:49:35 145.935
CUBEBUG 1 26 Sep 11:52:46 11:55:06 14° 91° (E) 11:57:25 437.445
DUCHIFAT 1 26 Sep 12:00:23 12:04:34 80° 75° (ENE) 12:08:45 145.980
QB50P1 26 Sep 12:00:25 12:04:38 89° 254° (WSW) 12:08:52 145.935-145.965
50 SAT 26 Sep 12:02:17 12:03:18 11° 91° (E) 12:04:18 437.505
UNISAT 6 26 Sep 12:03:21 12:04:53 12° 270° (W) 12:06:25 437.425
BUGSAT 1 26 Sep 12:10:42 12:14:35 41° 72° (ENE) 12:18:25 437.445
POPSAT HIP 1 26 Sep 12:13:50 12:18:01 63° 259° (W) 12:22:11 437.405
Oscar 19 26 Sep 12:17:53 12:20:21 14° 59° (ENE) 12:22:50 437.125/150
BEESAT 2 26 Sep 12:25:18 12:28:08 19° 249° (WSW) 12:30:57 435.950
NANOSAT C BR1 26 Sep 12:31:43 12:35:41 41° 261° (W) 12:39:40 145.865
PHONESAT 2.4 26 Sep 12:31:49 12:34:34 37° 162° (SSE) 12:37:22 2401.200-2431.200
AISAT 26 Sep 12:34:52 12:38:52 33° 97° (E) 12:42:49 437.250
SPROUT 26 Sep 12:41:29 12:44:41 20° 94° (E) 12:47:52 437.525
JAS-2 26 Sep 12:49:19 12:55:32 58° 261° (W) 13:02:37 435.910
UKube-1 26 Sep 12:51:50 12:55:15 23° 95° (E) 12:58:40 .
AIST 2 26 Sep 12:53:28 12:57:17 33° 50° (NE) 13:01:05 435.215
QB50P2 26 Sep 12:54:20 12:57:33 21° 266° (W) 13:00:46 145.880/145.840
POLYITAN 1 26 Sep 12:56:36 12:59:47 21° 266° (W) 13:02:59 437.675
M-CUBED/EXP-1 PRIME 26 Sep 12:59:52 13:02:41 26° 102° (ESE) 13:05:29 437.505
Gurwin Techsat 1B 26 Sep 13:00:26 13:03:41 17° 61° (ENE) 13:06:56 435.225
HUMSAT D 26 Sep 13:03:36 13:04:06 10° 298° (WNW) 13:04:36 437.325/437.525
ESTCUBE 1 26 Sep 13:11:31 13:15:55 49° 288° (WNW) 13:20:16 437.505/2401.250
DX 1 26 Sep 13:16:22 13:20:39 56° 101° (E) 13:24:54 434.975-435.025
YUBILEINY 26 Sep 13:17:19 13:23:34 21° 63° (ENE) 13:29:47 435.215
VELOX 1 26 Sep 13:18:23 13:22:48 85° 286° (WNW) 13:27:11 145.980
AO-7 26 Sep 13:24:10 13:26:54 12° 42° (NE) 13:29:38 29.400- 29.500
CUBEBUG 1 26 Sep 13:27:28 13:31:41 50° 287° (WNW) 13:35:51 437.445
50 SAT 26 Sep 13:33:31 13:37:04 46° 286° (WNW) 13:40:34 437.505
BUGSAT 1 26 Sep 13:47:37 13:50:07 16° 267° (W) 13:52:37 437.445
PCSat 26 Sep 13:51:23 13:56:28 39° 53° (NE) 14:01:31 145.827
Oscar 19 26 Sep 13:53:45 13:58:57 82° 256° (WSW) 14:04:12 437.125/150
AUBIESAT-1 26 Sep 13:58:08 14:01:22 55° 291° (WNW) 14:04:37 437.475
PHONESAT 2.4 26 Sep 14:07:37 14:10:35 78° 176° (S) 14:13:33 2401.200-2431.200
TISAT 1 26 Sep 14:07:43 14:11:34 35° 98° (E) 14:15:24 437.305
AISAT 26 Sep 14:11:43 14:15:08 23° 294° (WNW) 14:18:33 437.250
SPROUT 26 Sep 14:16:51 14:20:41 33° 290° (WNW) 14:24:30 437.525
UKube-1 26 Sep 14:27:30 14:31:19 31° 291° (WNW) 14:35:06 .
AIST 2 26 Sep 14:32:10 14:35:37 25° 247° (WSW) 14:39:04 435.215
M-CUBED/EXP-1 PRIME 26 Sep 14:35:02 14:37:03 15° 299° (WNW) 14:39:04 437.505
Gurwin Techsat 1B 26 Sep 14:37:46 14:43:03 69° 258° (WSW) 14:48:22 435.225
ITAMSAT 1 26 Sep 14:43:35 14:48:21 40° 69° (ENE) 14:53:10 435.822/435.867
DX 1 26 Sep 14:54:04 14:56:22 14° 297° (WNW) 14:58:38 434.975-435.025
SO-50 26 Sep 14:58:08 15:00:51 15° 109° (ESE) 15:03:34 436.795
Cosmos 2491 26 Sep 15:07:09 15:15:30 51° 89° (E) 15:23:55 435.465 / 435.565
AO-7 26 Sep 15:09:49 15:17:46 52° 64° (ENE) 15:25:42 29.400- 29.500
ITUPSAT 1 26 Sep 15:11:51 15:16:13 33° 97° (E) 15:20:33 437.325
YUBILEINY 26 Sep 15:12:44 15:21:28 83° 265° (W) 15:30:09 435.215
Cosmos 2504 26 Sep 15:13:51 15:20:47 41° 75° (ENE) 15:28:05 435.465 / 435.565
SWISSCUBE 26 Sep 15:25:40 15:30:22 53° 101° (E) 15:35:03 437.505
PCSat 26 Sep 15:35:02 15:39:43 30° 251° (WSW) 15:44:23 145.827
BEESAT 26 Sep 15:38:47 15:43:34 65° 102° (ESE) 15:48:19 436.000
PHONESAT 2.4 26 Sep 15:43:45 15:46:38 50° 194° (SSW) 15:49:31 2401.200-2431.200
TISAT 1 26 Sep 15:43:59 15:46:58 19° 294° (WNW) 15:49:56 437.305
MOZHAYETS 4 26 Sep 15:44:33 15:46:38 13° 90° (E) 15:48:41
KKS-1 26 Sep 16:20:59 16:24:06 19° 93° (E) 16:27:12 437.445
ITAMSAT 1 26 Sep 16:23:44 16:27:55 25° 265° (W) 16:32:09 435.822/435.867
SO-50 26 Sep 16:36:00 16:40:49 67° 305° (NW) 16:45:35 436.795
AIST 1 26 Sep 16:38:48 16:42:49 37° 77° (ENE) 16:46:46
HORYU 2 26 Sep 16:39:08 16:42:42 25° 67° (ENE) 16:46:17 437.375
O/OREOS (USA 219) 26 Sep 16:42:58 16:45:57 17° 54° (NE) 16:48:54 437.305
ITUPSAT 1 26 Sep 16:49:54 16:53:54 27° 293° (WNW) 16:57:53 437.325
STARS 26 Sep 16:58:50 17:02:17 22° 95° (E) 17:05:44 437.465
CUBESAT XI-V 26 Sep 17:01:08 17:01:50 10° 88° (E) 17:02:31 437.345
AO-7 26 Sep 17:03:14 17:10:42 36° 262° (W) 17:18:13 29.400- 29.500
NOAA 18 26 Sep 17:03:16 17:04:01 10° 55° (NE) 17:04:45 137.9125
SWISSCUBE 26 Sep 17:04:33 17:07:44 18° 297° (WNW) 17:10:55 437.505
Cosmos 2491 26 Sep 17:04:42 17:12:34 36° 289° (WNW) 17:20:33 435.465 / 435.565
Cosmos 2504 26 Sep 17:07:23 17:14:01 37° 272° (W) 17:21:04 435.465 / 435.565
YUBILEINY 26 Sep 17:12:15 17:16:49 16° 284° (WNW) 17:21:23 435.215
BEESAT 26 Sep 17:18:09 17:20:48 15° 298° (WNW) 17:23:28 436.000
MOZHAYETS 4 26 Sep 17:19:35 17:24:11 64° 286° (WNW) 17:28:47
PHONESAT 2.4 26 Sep 17:20:41 17:22:22 14° 210° (SSW) 17:24:03 2401.200-2431.200
GOMX 1 26 Sep 17:39:55 17:44:28 28° 68° (ENE) 17:48:52 467.674
BRITE-PL 26 Sep 17:41:09 17:46:46 63° 74° (ENE) 17:52:20 437.365/2234.400
